Vorticity
11 10 10 9 8 6 5 5 6 7 9 11 13 12 8 4 4 10 10 3 3 7 7 6 3 3 3 3 5 7 9 8 6 5 4 8 9 7 7 7 6 7 8 6 6 6 5 7 9 10 7 6 6 2 1 1 0 4 5 -2 0 13 13 6 3 4 4 2 3 5 4 4 6 6 5 5 4 5 5 3 2 1 1 4 7 8 8 8
10 9 10 8 7 6 6 7 8 10 12 13 12 7 4 4 7 12 8 1 4 7 7 6 3 3 3 3 5 7 9 8 7 5 3 6 7 5 6 7 6 6 7 5 6 5 6 9 8 9 8 7 6 0 2 4 3 4 4 -1 3 12 10 4 3 3 2 3 4 4 4 4 4 6 4 3 5 6 5 4 2 2 2 4 6 7 6 6
8 8 8 7 7 7 7 9 11 12 12 11 7 4 4 7 11 11 6 1 4 7 7 6 4 4 3 3 5 7 9 8 7 5 2 5 6 5 5 6 5 5 5 5 5 5 8 9 7 8 7 6 6 2 1 3 5 5 3 4 8 10 7 3 3 4 2 3 4 4 6 5 3 4 3 3 5 5 7 6 4 5 4 5 6 6 6 4
8 7 7 8 8 7 9 12 13 11 9 7 4 4 7 11 12 8 3 3 5 7 7 5 5 4 4 4 5 7 9 8 7 5 4 5 6 5 6 6 5 4 3 4 5 6 8 7 7 8 6 6 6 4 2 4 7 5 2 6 9 10 8 4 5 6 3 3 5 4 4 5 4 3 2 3 4 5 8 7 5 6 6 6 5 6 6 4
7 7 7 8 9 10 11 12 11 8 6 5 4 6 10 12 10 3 2 6 7 7 7 6 5 4 5 5 5 8 9 8 7 6 4 4 6 5 5 6 4 3 3 4 5 6 7 7 7 6 6 7 6 5 3 5 9 5 4 8 6 6 11 10 8 7 4 5 5 4 3 3 4 4 2 3 3 4 6 5 4 4 5 7 6 4 4 4
7 7 8 9 11 12 11 10 7 6 5 4 5 9 12 11 4 1 4 9 9 8 6 6 6 5 5 5 6 9 9 9 7 5 5 4 5 5 5 6 4 2 2 4 4 5 8 7 7 6 6 7 7 5 3 6 8 4 2 6 6 3 9 14 10 8 7 7 4 2 5 3 3 4 3 2 2 5 5 4 4 4 4 5 5 3 2 2
7 6 7 9 13 12 9 8 6 5 4 4 7 10 12 8 1 1 8 10 9 8 6 6 6 5 6 6 7 9 10 9 5 4 6 5 6 5 5 6 4 3 2 3 4 5 7 7 7 7 7 7 8 6 2 4 6 3 1 4 8 5 9 14 11 9 7 6 4 1 5 4 2 2 3 2 1 4 6 4 5 5 5 4 4 4 1 2
9 6 6 9 14 13 7 6 6 5 4 4 7 11 12 6 -0 2 8 12 10 7 7 6 5 6 6 7 8 8 9 9 5 3 6 5 6 6 5 6 5 4 2 2 4 5 5 7 8 7 8 8 7 7 3 3 5 4 4 3 4 6 10 11 11 12 7 5 4 3 6 4 0 0 1 3 2 3 5 5 5 4 4 5 4 4 3 2
13 8 6 8 14 13 5 4 6 6 4 4 7 11 11 6 1 3 8 12 10 8 7 6 6 6 7 9 9 8 8 9 5 3 5 5 6 6 6 7 6 6 4 2 3 5 4 6 8 7 8 7 7 7 3 5 6 2 4 4 2 5 8 8 8 10 8 6 4 4 8 5 1 -0 -1 1 2 2 4 5 4 3 3 5 5 5 4 2
15 12 7 6 13 13 5 3 6 7 5 4 6 10 11 8 3 4 9 11 11 9 7 7 8 8 9 9 8 8 8 8 7 4 4 6 6 6 7 7 7 8 7 5 4 4 4 6 9 7 7 6 4 5 4 7 7 1 3 4 5 7 5 6 8 7 6 7 6 5 7 6 2 -0 -2 -1 2 2 3 5 4 4 4 4 5 5 6 5
14 15 11 7 11 13 7 4 6 7 5 4 6 8 10 8 4 5 9 10 10 9 7 9 9 9 9 8 8 8 7 7 8 5 4 7 7 6 8 8 8 9 8 7 4 5 5 6 10 8 7 6 2 3 4 5 7 5 4 2 5 9 6 8 11 5 4 9 9 6 5 6 4 2 0 -2 1 2 3 5 3 3 4 4 5 6 8 8
11 13 12 8 10 13 9 7 6 7 5 4 5 7 8 7 5 5 8 9 8 7 7 8 8 9 8 7 8 8 6 7 8 5 3 5 5 6 9 10 10 10 9 8 6 8 8 7 10 9 7 5 3 4 3 3 5 5 7 5 4 8 8 10 13 6 4 9 7 3 3 6 6 4 4 2 3 4 4 5 4 4 5 6 6 7 8 7
9 10 11 9 10 12 11 8 6 7 6 4 5 6 7 7 6 6 8 8 8 7 7 6 6 7 7 7 8 7 6 6 7 6 4 4 5 6 8 10 12 11 9 9 9 11 10 7 8 7 6 5 4 4 3 3 4 5 8 7 4 10 15 14 13 7 5 7 3 -3 -4 4 8 5 6 6 4 6 5 5 6 6 5 7 8 8 8 7
9 9 10 10 9 11 11 9 7 7 6 4 5 5 6 7 6 7 8 8 8 7 7 5 5 6 7 7 8 8 7 7 6 7 7 6 7 8 8 9 10 10 9 9 12 12 9 8 6 6 6 6 5 4 5 3 3 5 7 10 8 6 16 22 13 3 6 8 2 -2 -2 5 8 5 5 5 5 6 5 6 5 5 6 8 9 7 6 6
8 8 9 10 9 9 9 9 8 7 6 5 4 5 6 6 6 6 7 8 8 7 6 5 6 7 8 9 9 10 10 9 8 9 11 9 8 8 7 7 7 8 8 8 11 9 8 9 6 8 7 5 6 6 7 5 5 7 1 8 13 -0 8 24 11 -1 7 10 3 1 4 7 7 7 7 3 4 4 3 5 3 3 7 8 8 7 6 6
8 8 8 8 8 9 8 8 7 7 6 5 4 4 5 6 6 6 5 6 7 6 6 5 6 8 10 10 10 10 10 10 9 9 11 9 8 7 6 7 6 7 7 7 10 6 6 8 7 10 9 7 9 7 8 5 6 8 -3 -1 10 5 8 21 15 3 6 7 2 -2 -3 3 7 7 6 2 3 2 1 4 3 3 5 6 6 6 6 6
8 7 7 8 8 8 9 9 8 7 6 5 5 5 5 6 6 6 5 5 5 5 6 5 7 9 10 10 8 8 8 8 8 6 7 8 6 7 6 6 5 6 6 7 9 5 4 6 7 9 8 10 10 9 10 7 6 9 6 1 7 10 4 11 17 8 5 2 -0 -1 -6 1 8 5 5 3 2 3 1 2 3 4 6 5 5 5 5 5
8 8 7 7 7 7 8 9 8 8 8 7 7 6 7 7 7 8 6 5 4 4 5 5 7 8 8 8 7 7 6 6 8 6 6 7 5 6 6 5 5 5 5 6 7 6 4 5 6 7 8 9 9 11 5 -1 5 11 9 6 8 11 3 6 15 10 9 3 -3 -1 -7 1 8 4 7 7 4 4 3 4 3 5 6 4 4 4 5 4
8 9 9 8 7 7 7 8 8 9 10 9 9 8 8 8 7 8 8 7 5 4 4 5 7 8 7 7 7 7 5 4 6 6 6 6 5 5 5 5 5 5 5 6 6 5 5 5 6 8 10 8 6 7 -4 -9 6 10 8 9 11 13 5 5 10 8 12 7 1 -2 -11 -1 6 1 7 12 8 -1 0 6 4 5 5 1 3 4 5 5
6 7 10 10 9 8 7 7 7 8 9 10 11 11 10 9 8 8 8 8 7 5 5 5 8 8 5 7 7 5 5 5 5 6 6 6 6 5 6 6 5 6 6 5 7 7 5 6 8 7 5 2 1 4 1 0 7 6 8 12 13 13 7 3 4 3 7 6 8 4 -9 -3 2 2 8 11 9 0 3 10 2 5 6 -1 2 3 5 6
6 5 7 10 11 11 9 7 7 7 7 8 10 12 13 12 10 9 9 9 8 7 6 6 8 7 5 6 6 5 4 6 5 5 6 7 6 6 7 6 5 7 6 5 8 6 6 9 9 2 -3 1 4 7 9 7 7 8 11 11 12 13 4 1 2 -0 2 3 8 6 -4 -3 3 7 6 4 10 6 8 14 6 7 6 2 4 2 2 6
7 7 5 6 8 11 11 10 8 7 6 7 7 9 11 12 12 11 10 10 9 8 7 7 8 6 5 5 6 5 4 5 6 5 6 6 7 7 6 7 6 6 7 7 7 7 11 10 2 -4 -1 7 10 11 10 7 8 10 9 9 12 15 6 1 2 -1 -2 0 1 0 -3 -2 6 9 1 -1 10 7 4 9 10 9 5 2 4 2 1 4
5 8 8 6 6 7 9 11 11 9 7 6 6 6 8 10 12 12 12 12 10 9 8 8 8 6 5 5 5 6 4 4 5 7 7 5 7 8 6 7 7 6 7 8 8 10 10 3 -3 -1 5 10 10 10 8 7 10 9 10 12 8 11 11 5 8 6 -1 -2 -3 -3 -1 2 8 9 1 -1 5 5 2 1 3 4 3 3 1 1 2 1
1 3 6 7 7 7 7 8 10 11 10 8 6 5 6 7 9 11 12 13 12 10 9 9 8 7 6 6 4 5 4 4 4 7 9 7 7 8 6 6 6 6 6 7 10 10 3 -2 2 6 6 10 10 8 8 9 11 6 9 15 5 7 10 -1 3 8 1 2 2 -1 5 11 12 9 6 5 4 6 7 3 1 2 3 5 3 -1 -2 -1
-2 -2 1 4 5 6 8 8 8 9 10 11 9 7 5 5 6 8 9 12 13 12 11 10 8 7 6 6 5 5 4 4 4 5 9 8 6 7 6 6 5 5 6 6 9 8 4 3 6 8 8 10 9 7 9 11 13 8 9 15 9 7 10 0 -0 4 2 10 13 8 10 14 10 7 10 10 7 10 11 6 3 2 2 4 7 7 2 -1
-1 -4 -5 -2 1 3 4 5 7 8 8 9 10 10 8 7 6 6 6 8 11 11 10 10 8 7 5 4 6 6 3 4 5 4 5 5 6 6 6 5 5 6 6 5 7 6 3 3 6 8 8 10 10 8 9 9 15 14 11 16 14 9 13 10 6 6 5 8 11 7 4 1 -1 4 11 11 10 13 11 6 3 3 4 3 7 14 13 5
10 5 -1 -6 -5 -2 0 2 4 5 7 9 10 10 11 11 9 8 6 5 6 9 8 7 7 7 6 4 5 5 4 5 6 5 5 5 6 6 3 3 4 6 5 4 9 8 3 4 7 8 8 10 10 7 7 9 12 7 -0 4 11 11 13 13 12 11 4 -2 1 6 5 0 -1 3 6 7 10 14 9 4 3 2 5 6 8 15 16 11
13 14 13 6 -1 -4 -5 -2 -0 -0 3 6 9 9 10 11 11 11 10 7 6 7 6 5 6 6 6 6 5 4 5 6 7 7 6 4 4 4 2 2 3 4 5 5 7 6 3 4 6 6 9 10 6 4 5 7 8 5 0 3 7 8 8 8 12 12 7 4 10 20 22 16 8 5 6 6 9 14 13 8 4 3 4 5 9 13 13 11
10 11 13 15 13 7 1 -3 -3 -2 -1 1 4 7 8 8 10 11 11 10 9 8 7 6 5 4 5 7 6 6 6 5 5 5 6 5 3 4 3 4 4 5 9 6 2 3 4 5 6 6 9 6 3 5 5 5 7 6 7 7 5 4 3 2 5 7 4 4 11 13 11 12 11 8 12 11 7 11 14 11 7 5 4 4 9 12 11 9
10 10 10 11 13 15 13 8 2 -1 -3 -3 -1 2 4 4 6 8 10 11 11 11 11 9 7 5 5 6 5 6 6 6 6 5 5 6 5 6 5 5 6 6 8 6 4 6 7 7 7 8 8 6 4 6 4 5 7 7 7 5 2 2 1 -1 2 2 -6 -0 17 11 -5 2 10 6 10 12 7 7 9 10 8 7 6 8 12 14 11 8
9 10 11 11 11 12 14 14 12 7 2 -2 -3 -2 -1 1 3 4 7 10 10 11 12 12 12 11 8 7 6 6 6 6 7 7 7 7 7 8 8 7 7 7 8 8 8 10 10 8 9 9 8 6 4 4 3 4 5 6 7 4 3 4 4 3 3 3 0 7 20 8 -4 9 14 7 11 14 13 13 11 12 12 12 13 13 12 12 11 10
8 8 9 10 11 12 12 13 14 13 10 5 1 -2 -4 -2 1 1 2 6 7 8 10 11 13 15 14 11 8 7 7 6 6 6 6 7 7 7 8 8 8 10 12 10 10 12 11 8 8 10 8 4 3 4 4 4 3 4 5 3 4 3 6 11 9 6 10 13 10 1 2 14 12 6 11 10 9 12 12 13 13 13 15 14 11 9 7 7
6 8 9 9 10 10 10 12 13 13 14 11 8 5 1 1 0 -3 -2 2 4 4 6 8 10 12 14 13 11 11 9 8 8 7 7 7 7 8 8 8 10 11 11 11 13 13 11 10 8 9 6 2 5 6 3 4 4 3 4 4 5 4 4 11 11 5 6 8 8 7 8 8 4 5 8 6 5 6 8 11 11 8 8 9 9 8 5 4
4 5 7 8 10 10 9 9 10 11 13 13 12 10 8 7 3 -3 -4 -0 2 2 2 4 6 8 10 10 12 13 10 8 9 9 9 9 9 10 10 9 11 10 9 13 13 9 9 11 10 10 4 -0 5 5 -0 3 4 4 6 6 7 10 5 1 4 7 8 8 9 8 7 6 5 5 6 6 5 6 6 7 6 3 2 1 4 5 3 2
3 3 4 5 7 10 11 10 9 9 9 11 13 12 11 11 9 4 1 -1 -0 1 1 1 1 4 6 7 10 12 9 9 9 8 9 10 9 10 10 9 10 9 10 13 11 9 9 6 5 12 10 4 5 4 2 6 7 6 9 7 6 10 9 1 -3 -2 -2 -1 3 4 3 4 3 1 4 8 9 8 7 5 3 0 -2 -2 -0 2 3 3
3 2 3 4 4 6 9 11 12 11 8 7 7 10 13 15 14 12 9 4 1 1 3 3 1 1 2 3 5 8 9 9 9 7 7 7 7 8 9 9 9 6 7 9 8 11 13 8 7 12 10 7 8 6 5 8 8 7 9 9 7 7 8 6 3 3 5 5 5 6 5 5 5 4 5 7 8 7 7 6 4 2 -0 -1 0 3 4 6
2 1 1 2 3 4 7 8 10 12 12 8 4 4 9 13 15 17 15 10 6 4 3 4 6 4 3 3 2 3 5 7 7 6 4 4 5 5 6 7 7 5 4 6 6 7 10 10 12 13 8 7 10 9 7 6 6 8 10 12 15 13 9 7 5 4 8 10 7 7 9 7 7 8 9 9 9 6 5 4 4 4 3 2 2 5 6 7
2 -0 -1 1 2 3 5 6 7 9 11 12 9 6 5 5 8 14 17 16 12 8 6 5 7 7 7 7 5 4 5 5 5 5 4 4 4 3 4 5 5 7 6 6 5 6 7 5 7 13 11 6 7 9 9 9 10 9 6 7 12 14 13 16 15 9 7 9 8 7 6 4 5 6 4 4 3 3 3 2 3 3 2 1 3 4 5 6
2 -0 -1 0 2 3 4 4 6 7 8 11 11 12 11 7 5 6 11 15 15 12 9 7 8 7 7 8 7 7 6 5 5 5 4 4 3 1 3 4 4 7 9 9 7 6 8 6 4 9 11 7 6 8 8 10 12 8 2 2 5 6 5 8 10 7 8 11 10 9 8 7 7 3 -2 -2 -2 -0 2 3 4 4 3 3 4 4 4 4
3 2 1 0 1 3 4 4 4 5 6 7 8 12 15 13 10 6 6 9 12 13 11 8 7 5 4 5 5 6 6 4 3 4 4 4 3 2 2 4 3 4 7 10 10 8 7 7 6 6 9 8 7 8 6 4 5 4 2 3 5 6 5 4 2 -0 -1 -0 1 2 3 5 4 1 2 3 1 0 2 4 5 6 5 5 5 4 4 4
6 6 4 3 2 3 4 4 3 3 5 6 6 9 12 14 15 12 8 7 7 9 10 7 6 4 4 4 5 6 7 6 4 4 4 4 4 3 2 3 3 2 2 5 8 10 8 8 8 5 6 7 5 5 3 0 0 0 -2 -2 0 3 5 6 8 7 5 3 2 -1 -0 1 1 1 1 -1 -1 3 5 5 5 5 5 5 5 5 5 5
8 7 7 7 5 5 5 4 4 4 4 4 6 8 8 10 12 13 12 9 7 7 7 6 6 6 7 8 9 10 10 10 8 6 5 5 5 5 4 4 4 2 2 1 2 6 7 7 8 5 4 4 3 3 3 2 2 1 -1 -1 -1 2 3 3 3 3 3 4 2 0 1 0 -1 1 2 1 3 7 6 5 5 5 4 4 4 5 5 5
8 8 9 9 8 7 5 4 4 5 5 5 6 7 7 7 7 9 10 10 10 9 8 9 9 10 11 12 12 12 11 11 11 9 8 7 6 6 5 6 6 4 3 2 1 2 3 4 4 6 7 5 4 5 4 3 3 2 1 1 1 3 4 3 2 -0 1 3 2 0 3 5 3 4 6 6 5 6 6 6 6 5 5 5 4 5 5 5
8 9 9 9 9 8 7 5 6 6 6 6 7 6 6 7 6 6 7 8 9 10 9 10 10 11 11 11 11 11 10 10 10 10 10 9 8 7 6 6 6 5 4 2 1 1 4 5 5 6 9 7 5 4 2 0 -1 -1 1 1 3 5 3 3 5 3 3 5 4 3 5 7 5 1 2 4 4 5 6 5 5 5 5 4 4 5 5 4
7 8 8 8 8 9 8 7 8 7 6 7 7 6 6 6 5 6 6 6 6 8 8 9 9 9 10 10 9 10 9 9 9 9 9 9 8 8 8 7 6 5 4 3 2 3 6 8 6 5 6 8 8 7 5 4 2 2 4 4 5 5 4 4 5 4 4 7 6 3 3 4 2 -0 2 5 6 6 5 5 5 5 4 4 3 3 3 3
7 7 8 8 8 8 9 9 9 8 8 8 7 7 7 6 6 6 6 6 6 6 7 7 7 8 8 9 9 9 9 9 9 9 8 8 8 7 7 7 7 6 6 5 5 6 7 7 7 4 2 3 4 4 5 6 5 4 5 6 6 5 4 3 2 2 5 6 5 2 2 6 6 4 6 8 8 8 6 5 4 3 3 3 3 3 4 5
9 8 9 9 9 8 8 9 9 8 8 9 8 8 8 7 7 6 6 5 6 6 7 7 6 6 7 8 9 10 10 10 9 9 8 8 8 8 7 7 6 6 7 6 6 6 6 6 6 5 4 2 1 2 2 3 4 5 5 4 4 4 3 2 3 4 5 6 6 6 6 9 9 8 7 6 5 5 4 4 3 2 3 3 5 7 7 8
10 10 10 9 9 8 8 8 9 9 9 8 8 8 9 8 7 7 7 6 6 6 6 6 6 6 6 7 7 8 9 9 9 8 9 9 9 8 8 7 7 7 6 6 6 6 6 6 6 5 5 5 4 4 4 3 3 3 3 3 3 3 4 4 5 6 6 6 7 7 6 5 5 5 4 2 2 3 3 4 5 6 7 7 8 8 8 8
11 11 11 10 9 9 9 8 8 9 9 8 8 8 8 8 8 8 7 7 7 6 6 6 7 7 7 7 7 7 7 7 8 8 9 9 9 9 9 8 7 7 7 6 6 6 6 5 5 6 5 5 5 4 5 4 4 4 4 4 4 5 6 6 7 8 7 6 6 5 4 3 2 2 4 4 4 5 6 7 7 8 9 9 9 8 8 8
11 11 11 10 10 9 9 9 8 9 9 8 8 7 7 7 7 7 7 7 7 7 6 7 7 6 6 7 6 7 7 7 7 8 9 8 8 8 8 8 8 8 8 8 7 7 7 5 5 7 6 6 6 6 7 7 6 6 5 5 7 8 7 7 7 6 5 6 6 4 4 5 3 5 8 8 8 9 9 9 9 9 8 8 8 8 8 8
7 10 11 11 10 8 8 8 7 7 8 8 8 7 7 7 6 6 7 6 7 7 6 6 7 6 6 6 5 6 6 6 7 8 8 8 8 8 8 8 9 9 8 9 8 8 8 7 7 8 8 7 6 7 8 7 6 5 5 7 8 8 7 6 6 6 6 6 6 6 6 7 7 8 9 8 9 10 9 8 8 8 8 8 8 8 9 9
6 7 9 10 10 9 8 7 6 5 5 6 8 8 7 7 7 6 6 6 6 6 6 6 6 6 5 6 6 6 6 6 6 6 7 7 7 7 7 7 7 7 7 8 8 8 8 8 8 8 8 8 7 7 8 7 6 5 6 9 9 8 8 8 9 9 9 8 8 9 9 9 9 9 7 7 8 8 7 7 7 7 8 9 9 9 10 10
Height
5817 5819 5820 5822 5823 5824 5826 5827 5828 5829 5831 5832 5834 5835 5837 5838 5840 5841 5842 5844 5846 5847 5848 5849 5850 5851 5852 5853 5854 5855 5856 5856 5857 5857 5858 5859 5860 5861 5861 5862 5863 5864 5865 5865 5866 5866 5866 5866 5866 5867 5867 5868 5869 5869 5869 5869 5870 5870 5870 5870 5871 5872 5871 5871 5870 5869 5868 5868 5867 5867 5865 5864 5864 5863 5862 5862 5861 5861 5861 5861 5861 5860 5860 5860 5860 5859 5859 5859
5817 5818 5820 5821 5823 5824 5825 5826 5828 5829 5830 5832 5833 5835 5836 5838 5839 5841 5842 5844 5845 5846 5847 5848 5850 5850 5852 5853 5853 5854 5855 5856 5856 5857 5858 5859 5860 5860 5861 5862 5863 5863 5864 5865 5865 5866 5866 5866 5866 5867 5868 5868 5869 5870 5870 5870 5870 5871 5871 5871 5872 5873 5872 5872 5871 5870 5869 5869 5868 5868 5867 5866 5865 5865 5864 5864 5863 5863 5863 5863 5863 5863 5862 5862 5862 5862 5861 5861
5817 5818 5820 5821 5822 5823 5825 5826 5827 5828 5830 5831 5833 5835 5836 5837 5839 5840 5842 5843 5844 5845 5847 5848 5849 5850 5851 5852 5853 5854 5855 5855 5856 5856 5858 5858 5859 5860 5861 5861 5862 5863 5864 5864 5865 5865 5866 5866 5867 5867 5868 5869 5870 5870 5871 5871 5871 5871 5871 5872 5873 5873 5872 5872 5872 5871 5870 5870 5869 5869 5868 5868 5867 5867 5866 5865 5865 5865 5865 5865 5865 5865 5864 5864 5864 5864 5864 5864
5817 5818 5819 5821 5822 5823 5824 5825 5827 5828 5830 5831 5833 5834 5836 5837 5838 5840 5841 5842 5844 5845 5846 5847 5849 5850 5851 5852 5852 5853 5854 5855 5855 5856 5857 5858 5859 5860 5860 5861 5862 5862 5863 5864 5865 5865 5866 5866 5867 5867 5868 5869 5870 5871 5871 5871 5872 5872 5872 5872 5873 5873 5873 5873 5872 5872 5872 5871 5870 5869 5869 5869 5868 5868 5867 5867 5867 5867 5867 5867 5867 5867 5867 5866 5866 5866 5866 5866
5817 5818 5819 5820 5821 5823 5824 5825 5826 5828 5830 5831 5833 5834 5835 5837 5838 5839 5841 5842 5843 5844 5846 5847 5848 5849 5850 5851 5851 5852 5853 5854 5855 5855 5857 5858 5858 5859 5860 5861 5861 5862 5863 5863 5864 5865 5866 5866 5867 5867 5868 5869 5870 5871 5871 5872 5872 5872 5872 5873 5873 5873 5873 5873 5873 5873 5873 5872 5871 5870 5870 5870 5869 5869 5869 5868 5868 5868 5868 5869 5869 5868 5868 5868 5868 5868 5868 5868
5817 5818 5819 5820 5821 5822 5824 5825 5827 5828 5829 5831 5832 5833 5835 5836 5838 5839 5840 5841 5843 5844 5845 5846 5848 5849 5849 5850 5851 5851 5852 5853 5854 5855 5856 5857 5858 5858 5859 5860 5861 5862 5862 5863 5864 5865 5865 5866 5867 5867 5868 5869 5870 5871 5871 5872 5872 5872 5872 5873 5873 5873 5873 5873 5873 5873 5873 5873 5872 5871 5871 5870 5870 5870 5870 5869 5869 5869 5869 5870 5870 5870 5870 5870 5870 5870 5870 5870
5817 5818 5819 5820 5821 5822 5824 5825 5827 5828 5829 5831 5832 5833 5834 5836 5837 5838 5840 5841 5842 5844 5845 5846 5847 5848 5848 5849 5850 5851 5851 5853 5853 5854 5855 5856 5857 5858 5859 5860 5860 5861 5862 5862 5863 5864 5865 5866 5866 5867 5868 5869 5870 5871 5871 5872 5872 5872 5872 5873 5873 5874 5873 5873 5873 5873 5873 5873 5873 5873 5872 5871 5871 5871 5871 5870 5870 5870 5871 5870 5870 5871 5871 5871 5871 5871 5871 5871
5817 5818 5819 5820 5821 5822 5824 5825 5826 5828 5829 5830 5831 5832 5834 5835 5837 5838 5839 5840 5842 5843 5844 5845 5846 5847 5848 5849 5849 5850 5851 5852 5852 5853 5854 5855 5856 5857 5858 5859 5860 5861 5861 5862 5863 5864 5865 5865 5866 5867 5868 5869 5870 5870 5871 5872 5872 5872 5872 5872 5873 5873 5873 5873 5873 5873 5873 5873 5873 5873 5873 5872 5872 5872 5871 5871 5871 5871 5871 5871 5871 5871 5871 5872 5872 5872 5872 5872
5817 5818 5819 5820 5821 5822 5823 5825 5826 5827 5829 5830 5831 5832 5833 5835 5836 5837 5838 5839 5841 5842 5843 5844 5845 5846 5847 5848 5849 5850 5850 5851 5852 5852 5853 5854 5855 5856 5857 5858 5859 5860 5861 5861 5862 5863 5864 5865 5866 5867 5868 5868 5869 5870 5871 5871 5871 5871 5872 5872 5872 5873 5873 5873 5873 5873 5874 5874 5874 5874 5874 5873 5873 5872 5872 5872 5872 5872 5872 5871 5871 5871 5871 5872 5872 5872 5873 5873
5817 5818 5819 5820 5821 5822 5823 5824 5826 5827 5828 5829 5830 5831 5833 5834 5835 5836 5837 5839 5840 5841 5842 5843 5844 5845 5846 5847 5848 5849 5849 5850 5851 5852 5852 5853 5854 5855 5856 5857 5858 5859 5860 5861 5861 5862 5863 5865 5866 5866 5867 5868 5869 5869 5870 5870 5871 5871 5871 5871 5872 5872 5872 5872 5873 5873 5874 5874 5874 5874 5874 5874 5874 5873 5873 5873 5872 5872 5872 5872 5872 5872 5872 5872 5872 5872 5873 5873
5817 5818 5818 5819 5820 5821 5823 5824 5825 5826 5828 5829 5830 5831 5832 5833 5834 5835 5836 5838 5839 5840 5841 5842 5843 5844 5845 5846 5847 5848 5849 5849 5850 5851 5851 5852 5853 5854 5855 5856 5857 5858 5859 5860 5861 5862 5863 5864 5865 5866 5867 5867 5868 5869 5869 5870 5870 5871 5871 5871 5871 5871 5872 5872 5872 5873 5873 5874 5874 5874 5874 5875 5874 5874 5873 5873 5873 5872 5872 5872 5872 5872 5872 5872 5872 5872 5872 5872
5817 5817 5818 5819 5820 5821 5822 5823 5825 5826 5827 5828 5829 5830 5831 5832 5833 5834 5835 5836 5837 5838 5840 5841 5842 5843 5844 5845 5846 5847 5848 5848 5849 5850 5851 5852 5853 5853 5854 5855 5856 5857 5858 5859 5860 5861 5862 5863 5864 5865 5866 5867 5867 5868 5868 5869 5869 5870 5870 5870 5870 5871 5871 5871 5872 5872 5873 5873 5874 5874 5875 5875 5874 5874 5874 5873 5873 5873 5872 5872 5872 5873 5873 5872 5872 5872 5872 5872
5817 5817 5818 5819 5820 5820 5821 5823 5824 5825 5826 5827 5828 5829 5830 5831 5832 5833 5834 5835 5836 5837 5838 5840 5841 5842 5843 5844 5845 5846 5847 5848 5848 5849 5850 5851 5852 5853 5854 5855 5856 5856 5857 5858 5859 5860 5861 5862 5863 5864 5865 5865 5866 5867 5868 5868 5869 5869 5870 5869 5869 5871 5871 5870 5871 5871 5872 5873 5873 5874 5874 5875 5874 5874 5874 5874 5874 5873 5873 5872 5873 5873 5873 5872 5872 5872 5872 5872
5817 5817 5818 5818 5819 5820 5821 5822 5823 5824 5825 5826 5827 5828 5829 5830 5831 5832 5833 5834 5835 5836 5837 5838 5839 5841 5842 5843 5844 5845 5846 5847 5848 5849 5850 5851 5852 5852 5853 5854 5855 5856 5856 5857 5859 5860 5860 5861 5862 5862 5863 5864 5865 5866 5867 5867 5868 5868 5869 5869 5870 5872 5872 5870 5870 5871 5871 5873 5873 5873 5874 5874 5874 5874 5874 5874 5874 5874 5873 5873 5872 5872 5872 5872 5872 5872 5872 5873
5816 5817 5817 5818 5818 5819 5820 5821 5822 5823 5824 5825 5826 5827 5828 5829 5830 5831 5832 5833 5834 5835 5836 5837 5838 5839 5841 5842 5843 5844 5845 5846 5847 5848 5849 5850 5851 5852 5852 5853 5854 5855 5856 5857 5858 5859 5859 5860 5861 5861 5862 5863 5864 5865 5866 5866 5867 5867 5869 5870 5870 5871 5871 5870 5870 5871 5871 5872 5873 5873 5873 5874 5874 5874 5874 5874 5874 5874 5873 5873 5872 5872 5872 5872 5872 5872 5872 5872
5816 5816 5817 5817 5818 5818 5819 5820 5821 5822 5823 5824 5825 5826 5827 5828 5829 5830 5830 5831 5832 5833 5834 5836 5837 5838 5839 5841 5842 5843 5844 5845 5846 5847 5848 5849 5850 5851 5852 5853 5853 5854 5855 5856 5857 5858 5859 5859 5860 5861 5861 5862 5863 5864 5865 5865 5867 5867 5868 5869 5869 5869 5870 5870 5870 5870 5871 5872 5873 5873 5873 5873 5874 5874 5874 5874 5874 5874 5873 5873 5872 5872 5872 5872 5872 5872 5872 5872
5815 5816 5816 5817 5817 5818 5818 5819 5820 5821 5822 5823 5824 5825 5826 5826 5827 5828 5829 5830 5831 5832 5833 5834 5836 5837 5838 5839 5840 5842 5843 5844 5845 5846 5847 5848 5849 5850 5851 5852 5853 5853 5854 5855 5856 5857 5857 5858 5859 5860 5860 5861 5862 5863 5864 5866 5867 5867 5866 5867 5867 5868 5869 5870 5870 5871 5871 5872 5872 5872 5872 5873 5873 5874 5874 5874 5874 5874 5873 5873 5872 5871 5871 5871 5871 5871 5872 5872
5815 5815 5815 5816 5816 5817 5818 5818 5819 5820 5821 5822 5823 5824 5825 5825 5826 5827 5828 5829 5830 5831 5832 5833 5834 5836 5837 5838 5839 5841 5842 5843 5843 5844 5846 5846 5847 5848 5849 5851 5852 5852 5853 5854 5855 5856 5856 5857 5858 5859 5859 5860 5861 5862 5864 5865 5865 5865 5865 5866 5867 5867 5868 5869 5869 5870 5871 5871 5872 5872 5872 5873 5873 5873 5874 5874 5874 5874 5873 5873 5872 5872 5871 5871 5871 5871 5871 5871
5814 5814 5814 5815 5815 5816 5817 5817 5818 5819 5820 5821 5821 5822 5823 5824 5825 5826 5827 5828 5829 5829 5830 5832 5833 5834 5835 5837 5838 5839 5841 5841 5842 5843 5844 5845 5846 5847 5848 5849 5850 5851 5852 5853 5854 5855 5855 5856 5857 5858 5858 5859 5859 5860 5861 5861 5861 5863 5864 5865 5866 5866 5867 5867 5868 5869 5870 5871 5871 5872 5872 5872 5873 5873 5873 5873 5873 5873 5873 5872 5872 5871 5870 5870 5870 5870 5869 5870
5813 5813 5813 5814 5814 5815 5816 5816 5817 5818 5818 5819 5820 5821 5822 5822 5823 5824 5825 5826 5827 5828 5829 5831 5832 5833 5834 5835 5837 5838 5839 5840 5841 5842 5843 5844 5845 5846 5847 5848 5849 5850 5851 5851 5852 5853 5854 5855 5855 5856 5856 5856 5857 5858 5858 5859 5860 5862 5863 5864 5865 5866 5866 5866 5867 5868 5869 5870 5871 5871 5872 5872 5873 5873 5872 5872 5872 5872 5872 5871 5870 5870 5869 5869 5868 5868 5868 5868
5812 5812 5812 5813 5813 5814 5814 5815 5816 5816 5817 5818 5818 5819 5820 5821 5822 5823 5824 5825 5826 5827 5828 5829 5830 5831 5832 5834 5835 5836 5838 5839 5840 5841 5842 5843 5844 5845 5846 5847 5847 5848 5849 5850 5851 5852 5853 5853 5854 5854 5854 5854 5855 5856 5858 5859 5860 5861 5862 5864 5864 5865 5865 5864 5865 5867 5868 5870 5870 5870 5871 5872 5872 5871 5871 5871 5871 5871 5871 5871 5870 5870 5870 5870 5869 5869 5868 5867
5811 5811 5811 5811 5812 5812 5813 5813 5814 5815 5815 5816 5817 5817 5818 5819 5820 5821 5822 5823 5824 5825 5827 5828 5829 5830 5831 5832 5833 5835 5836 5837 5838 5839 5840 5841 5842 5843 5844 5845 5846 5847 5848 5848 5849 5850 5851 5852 5851 5851 5851 5853 5854 5855 5856 5857 5858 5860 5861 5863 5864 5864 5863 5863 5864 5865 5867 5868 5869 5869 5870 5871 5870 5869 5869 5870 5870 5870 5870 5871 5871 5871 5871 5871 5870 5870 5869 5869
5809 5809 5810 5810 5811 5811 5812 5812 5812 5813 5814 5814 5815 5816 5816 5817 5818 5819 5820 5821 5823 5824 5825 5826 5827 5828 5829 5830 5832 5833 5834 5836 5837 5838 5839 5840 5841 5842 5843 5844 5844 5845 5846 5847 5848 5849 5850 5849 5849 5849 5850 5852 5853 5854 5855 5856 5857 5859 5860 5861 5862 5862 5862 5862 5863 5864 5865 5866 5867 5867 5869 5871 5869 5866 5867 5868 5869 5870 5870 5870 5871 5871 5871 5871 5870 5870 5869 5869
5808 5808 5808 5809 5809 5810 5810 5810 5811 5811 5812 5813 5813 5814 5815 5816 5816 5817 5818 5819 5821 5822 5823 5824 5825 5826 5828 5829 5831 5832 5833 5834 5835 5836 5837 5838 5839 5840 5841 5842 5843 5844 5844 5845 5846 5847 5847 5846 5847 5848 5849 5850 5851 5852 5853 5854 5856 5857 5858 5860 5860 5861 5861 5861 5861 5862 5864 5864 5865 5866 5868 5870 5866 5864 5865 5866 5867 5868 5868 5869 5869 5869 5870 5870 5870 5869 5869 5869
5805 5806 5807 5807 5807 5808 5808 5809 5809 5810 5810 5811 5811 5812 5813 5814 5815 5816 5816 5817 5819 5820 5821 5822 5823 5825 5826 5827 5829 5830 5831 5832 5833 5834 5835 5836 5837 5838 5839 5841 5841 5842 5843 5844 5844 5845 5845 5844 5845 5846 5847 5849 5850 5850 5851 5853 5855 5856 5857 5858 5859 5859 5859 5860 5860 5861 5864 5863 5862 5864 5868 5867 5863 5862 5863 5863 5864 5865 5866 5867 5867 5867 5868 5868 5869 5869 5868 5868
5803 5804 5804 5805 5806 5806 5807 5807 5807 5808 5808 5809 5809 5810 5811 5812 5813 5814 5815 5816 5817 5817 5819 5820 5821 5823 5824 5825 5827 5828 5829 5830 5831 5832 5833 5834 5836 5837 5838 5839 5839 5840 5841 5842 5842 5843 5842 5843 5844 5845 5846 5847 5847 5848 5849 5851 5853 5854 5854 5855 5857 5858 5859 5859 5859 5861 5863 5862 5859 5861 5865 5865 5861 5860 5861 5860 5861 5863 5863 5864 5865 5865 5866 5866 5866 5866 5866 5867
5800 5801 5801 5802 5803 5804 5805 5805 5805 5806 5806 5807 5807 5808 5809 5810 5811 5812 5813 5814 5814 5815 5816 5817 5819 5821 5822 5823 5825 5826 5826 5827 5829 5830 5831 5832 5833 5834 5836 5836 5837 5838 5839 5840 5841 5840 5840 5841 5842 5843 5844 5845 5846 5847 5848 5850 5852 5852 5851 5853 5855 5856 5857 5857 5858 5860 5861 5859 5858 5859 5861 5863 5860 5858 5858 5858 5859 5860 5861 5862 5862 5863 5863 5864 5864 5864 5864 5864
5796 5797 5798 5799 5800 5801 5802 5803 5803 5804 5804 5805 5806 5806 5807 5808 5809 5810 5811 5811 5812 5813 5814 5815 5817 5819 5820 5821 5822 5823 5824 5826 5826 5827 5828 5830 5831 5832 5833 5833 5835 5836 5837 5839 5838 5838 5838 5839 5840 5841 5842 5844 5844 5844 5846 5848 5850 5849 5850 5852 5853 5854 5855 5855 5856 5858 5857 5857 5858 5857 5857 5860 5859 5855 5856 5857 5857 5858 5858 5859 5860 5860 5861 5861 5861 5861 5861 5861
5793 5794 5795 5796 5797 5798 5799 5800 5800 5801 5802 5803 5803 5804 5805 5806 5806 5807 5808 5808 5809 5811 5812 5813 5815 5816 5817 5818 5820 5821 5822 5823 5823 5825 5826 5827 5829 5830 5830 5831 5832 5834 5835 5836 5835 5835 5835 5837 5838 5839 5840 5841 5841 5842 5844 5846 5847 5847 5849 5850 5851 5852 5853 5853 5854 5855 5854 5854 5856 5856 5855 5858 5857 5853 5853 5854 5854 5856 5856 5856 5857 5857 5858 5858 5858 5858 5858 5857
5790 5790 5791 5792 5793 5794 5795 5796 5797 5798 5799 5800 5801 5802 5803 5803 5804 5804 5805 5806 5807 5808 5810 5811 5812 5814 5815 5816 5817 5819 5819 5820 5821 5822 5824 5825 5826 5827 5827 5828 5830 5831 5833 5833 5833 5833 5833 5834 5835 5836 5838 5839 5839 5840 5842 5844 5845 5846 5848 5849 5849 5850 5850 5851 5852 5852 5851 5851 5853 5854 5852 5855 5854 5850 5851 5852 5852 5853 5853 5854 5855 5855 5855 5856 5855 5855 5855 5855
5786 5787 5788 5789 5790 5791 5792 5792 5793 5795 5795 5796 5798 5799 5800 5800 5801 5801 5803 5804 5805 5806 5807 5808 5810 5811 5812 5813 5814 5815 5816 5817 5818 5820 5820 5822 5823 5824 5825 5826 5827 5829 5830 5831 5831 5831 5831 5832 5833 5834 5836 5837 5838 5839 5840 5842 5843 5844 5846 5846 5847 5847 5847 5848 5848 5848 5849 5849 5850 5850 5849 5852 5851 5848 5849 5850 5850 5851 5851 5851 5852 5852 5853 5853 5853 5852 5852 5852
5782 5783 5784 5785 5786 5787 5788 5788 5790 5791 5792 5793 5794 5795 5796 5797 5797 5798 5801 5802 5802 5803 5804 5806 5807 5808 5810 5810 5811 5812 5813 5814 5815 5816 5817 5819 5820 5821 5822 5823 5824 5826 5828 5828 5828 5829 5829 5828 5830 5832 5833 5835 5836 5837 5838 5839 5841 5842 5843 5844 5844 5844 5844 5845 5845 5845 5846 5847 5846 5846 5847 5848 5846 5845 5847 5848 5848 5848 5848 5849 5849 5849 5849 5850 5850 5849 5849 5849
5778 5779 5780 5781 5782 5783 5784 5785 5786 5787 5788 5789 5790 5791 5792 5792 5793 5797 5800 5799 5799 5801 5802 5804 5805 5806 5806 5807 5807 5809 5810 5810 5812 5813 5814 5816 5817 5818 5819 5820 5821 5824 5825 5825 5826 5826 5825 5825 5827 5829 5830 5832 5834 5835 5835 5836 5838 5839 5841 5841 5841 5841 5842 5842 5842 5842 5844 5844 5842 5843 5845 5843 5841 5842 5844 5845 5846 5846 5846 5846 5846 5846 5846 5846 5846 5846 5846 5846
5774 5775 5776 5777 5778 5779 5780 5781 5781 5783 5784 5784 5785 5786 5786 5786 5790 5795 5796 5795 5796 5798 5800 5801 5802 5803 5803 5803 5805 5806 5806 5807 5809 5810 5811 5812 5813 5814 5816 5817 5818 5820 5821 5823 5823 5822 5823 5824 5825 5826 5827 5829 5831 5833 5832 5833 5835 5836 5837 5838 5838 5838 5839 5839 5840 5840 5841 5840 5839 5840 5842 5839 5837 5839 5841 5842 5843 5843 5843 5844 5843 5843 5843 5843 5843 5843 5843 5843
5770 5771 5772 5773 5774 5774 5775 5776 5777 5778 5779 5780 5781 5781 5780 5783 5788 5791 5792 5792 5793 5795 5797 5798 5799 5800 5800 5801 5802 5803 5803 5804 5806 5807 5808 5808 5809 5811 5812 5814 5815 5817 5818 5820 5820 5820 5821 5821 5821 5823 5825 5826 5828 5829 5830 5832 5833 5832 5834 5835 5834 5835 5836 5836 5837 5837 5838 5838 5837 5837 5837 5835 5835 5836 5838 5838 5839 5839 5840 5840 5840 5840 5840 5839 5839 5839 5839 5839
5765 5766 5767 5768 5770 5770 5770 5771 5772 5773 5774 5775 5775 5775 5777 5781 5784 5786 5787 5788 5789 5791 5793 5794 5795 5796 5797 5798 5799 5799 5800 5801 5803 5804 5804 5805 5806 5807 5809 5811 5813 5814 5815 5817 5817 5818 5819 5818 5818 5821 5822 5823 5825 5826 5828 5830 5829 5829 5831 5831 5831 5832 5833 5833 5834 5833 5834 5835 5834 5833 5832 5832 5832 5832 5833 5834 5835 5835 5836 5836 5836 5836 5836 5836 5835 5835 5835 5835
5760 5762 5763 5764 5765 5765 5766 5766 5768 5768 5769 5770 5770 5771 5775 5777 5778 5780 5783 5784 5785 5787 5789 5790 5791 5792 5793 5794 5795 5796 5797 5798 5799 5799 5800 5802 5803 5804 5806 5808 5810 5811 5812 5814 5815 5816 5817 5815 5816 5819 5819 5820 5823 5823 5825 5826 5826 5827 5827 5827 5828 5830 5830 5831 5831 5830 5831 5832 5831 5830 5829 5829 5829 5828 5829 5831 5831 5831 5832 5832 5832 5832 5832 5832 5831 5831 5831 5830
5754 5756 5758 5759 5760 5761 5760 5761 5762 5763 5764 5764 5765 5768 5771 5773 5774 5776 5778 5779 5781 5782 5784 5785 5787 5788 5790 5790 5791 5792 5794 5794 5795 5795 5797 5798 5799 5800 5803 5805 5807 5808 5810 5811 5812 5813 5814 5813 5813 5816 5817 5818 5820 5821 5821 5822 5823 5824 5823 5824 5826 5827 5826 5827 5827 5827 5828 5828 5828 5827 5826 5826 5825 5823 5825 5827 5828 5827 5828 5827 5827 5827 5827 5827 5826 5826 5826 5826
5748 5750 5752 5754 5755 5755 5755 5756 5757 5757 5758 5759 5761 5764 5767 5768 5770 5772 5773 5775 5776 5777 5779 5781 5782 5784 5786 5786 5787 5788 5790 5790 5790 5792 5793 5794 5795 5797 5800 5802 5803 5805 5807 5808 5809 5810 5812 5811 5810 5811 5814 5815 5816 5818 5817 5817 5820 5821 5821 5821 5822 5823 5823 5822 5823 5824 5824 5824 5824 5824 5823 5823 5821 5820 5822 5824 5824 5823 5823 5823 5823 5823 5823 5822 5822 5821 5821 5821
5742 5744 5746 5748 5750 5750 5750 5750 5751 5751 5752 5755 5757 5760 5762 5764 5765 5767 5769 5770 5771 5772 5774 5776 5778 5779 5781 5782 5783 5784 5786 5786 5787 5788 5789 5790 5792 5793 5795 5798 5800 5802 5804 5805 5805 5807 5808 5809 5807 5807 5811 5813 5811 5812 5813 5814 5816 5817 5818 5818 5818 5819 5820 5819 5820 5821 5821 5821 5821 5820 5820 5819 5816 5817 5820 5820 5819 5820 5819 5819 5819 5818 5818 5817 5817 5816 5816 5815
5735 5737 5739 5742 5744 5744 5744 5744 5744 5746 5747 5750 5753 5754 5756 5758 5760 5762 5764 5765 5766 5768 5769 5772 5773 5774 5776 5777 5778 5780 5782 5782 5783 5784 5785 5786 5788 5789 5791 5794 5796 5798 5800 5800 5802 5803 5804 5806 5805 5804 5806 5807 5805 5807 5810 5811 5812 5813 5814 5814 5814 5816 5817 5817 5817 5816 5817 5818 5817 5817 5817 5815 5812 5814 5816 5816 5816 5816 5815 5814 5814 5813 5813 5812 5812 5811 5811 5810
5728 5729 5732 5735 5737 5738 5738 5738 5739 5741 5742 5744 5747 5749 5751 5753 5755 5757 5758 5760 5761 5763 5765 5766 5768 5769 5771 5772 5773 5775 5777 5778 5779 5780 5781 5782 5783 5784 5787 5790 5791 5793 5795 5796 5797 5799 5800 5802 5802 5800 5800 5801 5802 5805 5806 5806 5808 5809 5809 5810 5811 5812 5813 5814 5813 5813 5813 5813 5813 5814 5812 5810 5809 5810 5811 5812 5812 5811 5810 5809 5809 5808 5808 5807 5806 5806 5805 5805
5721 5723 5725 5727 5729 5731 5732 5731 5733 5735 5736 5738 5742 5744 5745 5747 5749 5751 5753 5754 5756 5758 5760 5761 5763 5765 5766 5767 5769 5770 5772 5773 5774 5775 5776 5777 5779 5780 5782 5784 5786 5788 5789 5790 5792 5794 5796 5797 5798 5796 5796 5797 5799 5800 5801 5802 5804 5804 5805 5806 5807 5808 5809 5810 5809 5810 5809 5808 5808 5810 5808 5804 5804 5806 5807 5807 5807 5806 5805 5804 5804 5804 5803 5802 5801 5801 5800 5799
5714 5716 5718 5719 5721 5723 5724 5725 5727 5729 5730 5733 5736 5737 5739 5741 5743 5745 5747 5749 5751 5753 5754 5756 5758 5759 5761 5762 5764 5765 5766 5768 5769 5770 5771 5773 5774 5776 5777 5779 5781 5782 5784 5785 5787 5789 5791 5792 5793 5793 5793 5793 5794 5795 5796 5797 5799 5799 5800 5802 5803 5803 5804 5805 5805 5805 5805 5804 5804 5806 5804 5800 5798 5800 5801 5801 5801 5800 5800 5799 5799 5798 5797 5797 5796 5795 5794 5793
5707 5709 5710 5712 5713 5715 5716 5719 5722 5723 5724 5726 5728 5730 5732 5734 5736 5739 5741 5743 5745 5747 5749 5751 5753 5754 5756 5757 5758 5759 5761 5762 5764 5765 5767 5768 5770 5771 5773 5774 5775 5777 5778 5780 5782 5783 5785 5787 5788 5789 5789 5789 5789 5789 5790 5792 5794 5795 5796 5797 5798 5798 5799 5800 5800 5799 5799 5799 5799 5801 5800 5796 5793 5794 5795 5795 5794 5794 5793 5793 5792 5792 5791 5791 5790 5789 5788 5787
5700 5701 5703 5704 5705 5707 5709 5712 5715 5715 5717 5719 5721 5723 5725 5727 5730 5733 5735 5737 5739 5741 5743 5745 5747 5749 5750 5752 5753 5755 5756 5758 5759 5760 5762 5763 5764 5766 5768 5769 5770 5772 5773 5775 5776 5778 5779 5780 5782 5784 5784 5784 5783 5783 5785 5787 5789 5789 5790 5791 5792 5793 5793 5794 5794 5793 5794 5794 5794 5794 5794 5792 5790 5788 5788 5789 5788 5787 5786 5786 5786 5785 5785 5784 5783 5782 5781 5780
5691 5694 5696 5697 5698 5699 5701 5704 5707 5708 5711 5713 5714 5716 5719 5721 5723 5726 5728 5730 5733 5735 5737 5739 5741 5743 5744 5746 5748 5750 5751 5753 5754 5755 5756 5757 5759 5761 5762 5763 5765 5766 5768 5769 5771 5772 5774 5774 5776 5778 5779 5778 5778 5779 5780 5781 5782 5783 5784 5785 5786 5786 5787 5787 5788 5788 5788 5788 5788 5786 5787 5789 5786 5781 5781 5783 5782 5780 5780 5779 5779 5778 5777 5776 5775 5774 5773 5772
5683 5686 5688 5689 5690 5692 5693 5696 5699 5701 5704 5706 5707 5710 5712 5714 5716 5719 5721 5724 5727 5729 5731 5732 5735 5737 5739 5741 5743 5744 5746 5747 5748 5749 5751 5752 5754 5756 5757 5758 5759 5761 5762 5764 5765 5767 5768 5768 5770 5772 5772 5773 5774 5774 5775 5775 5776 5777 5777 5778 5779 5779 5779 5780 5782 5783 5781 5782 5782 5780 5779 5782 5780 5775 5776 5778 5775 5773 5773 5772 5771 5771 5770 5769 5767 5766 5765 5764
5674 5677 5680 5681 5683 5685 5686 5688 5691 5694 5696 5698 5700 5703 5705 5707 5709 5712 5715 5718 5720 5722 5724 5726 5729 5731 5733 5735 5737 5738 5739 5741 5742 5744 5746 5748 5749 5750 5751 5752 5754 5755 5757 5758 5759 5761 5762 5762 5764 5765 5766 5767 5768 5768 5769 5770 5770 5770 5771 5772 5771 5772 5773 5774 5775 5776 5775 5775 5776 5775 5773 5773 5772 5770 5772 5772 5769 5768 5767 5766 5765 5764 5764 5763 5761 5760 5759 5757
5666 5668 5671 5673 5675 5678 5680 5681 5683 5685 5688 5691 5693 5695 5698 5700 5703 5705 5708 5711 5713 5715 5718 5720 5723 5725 5727 5729 5730 5731 5733 5735 5737 5739 5741 5742 5743 5744 5745 5747 5748 5749 5751 5752 5754 5755 5756 5756 5757 5759 5759 5760 5761 5762 5763 5763 5764 5765 5765 5765 5766 5767 5768 5768 5768 5768 5768 5769 5769 5768 5767 5765 5764 5765 5766 5765 5763 5762 5761 5761 5760 5759 5758 5756 5755 5753 5752 5750
5657 5659 5662 5665 5667 5670 5672 5674 5676 5678 5680 5683 5686 5689 5692 5693 5695 5699 5701 5704 5706 5709 5712 5714 5716 5718 5720 5722 5723 5725 5728 5730 5732 5733 5735 5736 5737 5738 5739 5741 5742 5744 5745 5746 5748 5749 5750 5750 5752 5753 5753 5753 5754 5756 5756 5757 5758 5757 5758 5760 5762 5762 5762 5761 5762 5762 5762 5762 5761 5760 5760 5759 5758 5759 5759 5757 5756 5755 5754 5753 5753 5752 5751 5749 5747 5745 5744 5742
5648 5650 5653 5655 5659 5663 5665 5666 5669 5670 5673 5676 5678 5681 5684 5686 5689 5692 5694 5696 5699 5702 5704 5707 5709 5711 5712 5714 5716 5719 5722 5724 5726 5727 5728 5730 5731 5732 5733 5735 5736 5737 5738 5740 5742 5742 5744 5745 5745 5747 5748 5746 5747 5750 5750 5750 5750 5749 5752 5756 5757 5756 5755 5755 5756 5756 5756 5755 5754 5754 5754 5753 5752 5752 5751 5750 5749 5748 5746 5746 5744 5743 5742 5741 5739 5737 5736 5735